NOOR 1B (44828 NORAD) Tracking and Keplerian Element Data

This shows tracking and keplerian element data for the satellite.

Feedback or suggestion? Click here.




ElementValue
Catalog44828
NameNOOR 1B
Epoch Orbit656
Epoch Day17.34300557
Epoch Year2020
RAAN246.3256
Inclination97.0007
Eccentricity0.0038612
Argument of Perigee95.5024
Mean Anonmoly265.0645
Mean Motion15.68970717
Decay Rate0.00054065
L11 44828U 19084E 20017.34300557 .00054065 00000-0 44957-3 0 9997
L22 44828 97.0007 246.3256 0038612 95.5024 265.0645 15.68970717 6560

Live tracking and technical data element details for NOOR 1B (NORAD 44828). NOOR 1B can be tracked NOW for your location showing map with azimuth and elevation plus other details from your city location.

Track the satellite on the map from your city or location and see movement details for azimuth, elevation, latitude, longitude, range, height, and movement on the map or in text.







IsCatalogInMostPopularTable: catalog: 44828, numindb: 8
Update: records affected: 1



GetName: 44828 NOOR 1B

Hit Count: updated at: Sat, 18 Jan 2020 17:35:50 GMT